Zagreb Pleso, Croatia

6:05 PM CET on January 23, 2018 (GMT +0100)
Pleso

Weather History for LDZA - October, 2012

Change the Weather History Date:

Wednesday, October 31, 2012

  Actual Average Record
Temperature  
Mean Temperature 41 °F -  
Max Temperature 54 °F - - ()
Min Temperature 28 °F - - ()
Degree Days  
Heating Degree Days 24    
Moisture  
Dew Point 35 °F    
Average Humidity 79    
Maximum Humidity 100    
Minimum Humidity 49    
Precipitation  
Precipitation 0.08 in - - ()
Sea Level Pressure  
Sea Level Pressure 29.84 in    
Wind  
Wind Speed 3 mph ()    
Max Wind Speed 10 mph    
Max Gust Speed -    
Visibility 6.4 miles    
Events Fog , Rain    
T = Trace of Precipitation, MM = Missing Value Source: Averaged Metar Reports

Daily Weather History Graph

Daily Weather History Graph

Search for Another Location

Airport or City:

Trip Planner

Search our weather history database for the weather conditions in past years. The results will help you decide how hot, cold, wet, or windy it might be!

Date:

Astronomy

Oct. 31, 2012 Rise Set
Actual Time 6:34 AM CET 4:43 PM CET
Civil Twilight 6:03 AM CET 5:14 PM CET
Nautical Twilight 5:28 AM CET 5:49 PM CET
Astronomical Twilight 4:53 AM CET 6:23 PM CET
Moon 5:36 PM CET (10/31) 8:05 AM CET (10/31)
Length of Visible Light 11h 10m
Length of Day
10h 08m
Full, 98% of the Moon is Illuminated
Oct 31
Full
Nov 7
Last Quarter
Nov 13
New
Nov 20
First Quarter
Nov 28
Full

Hourly Weather History & Observations

Time (CET) Temp. Windchill Dew Point Humidity Pressure Visibility Wind Dir Wind Speed Gust Speed Precip Events Conditions
12:00 AM 33.8 °F - 32.0 °F 93% 29.89 in 6.2 mi Calm Calm - N/A   Mostly Cloudy
12:30 AM 33.8 °F - 32.0 °F 93% 29.89 in 6.2 mi Calm Calm - N/A   Mostly Cloudy
1:00 AM 34 °F - 32 °F 89% 29.92 in 16 mi Calm Calm - -   Mostly Cloudy
1:00 AM 33.8 °F - 32.0 °F 93% 29.89 in 6.2 mi Variable 1.2 mph - N/A   Mostly Cloudy
1:30 AM 33.8 °F - 32.0 °F 93% 29.89 in 6.2 mi Variable 1.2 mph - N/A   Mostly Cloudy
2:00 AM 32.0 °F - 30.2 °F 93% 29.89 in 6.2 mi Calm Calm - N/A   Scattered Clouds
2:30 AM 32.0 °F - 30.2 °F 93% 29.89 in 6.2 mi North 2.3 mph - N/A Fog Shallow Fog
3:00 AM 32.0 °F - 30.2 °F 93% 29.89 in 6.2 mi ESE 2.3 mph - N/A Fog Shallow Fog
3:30 AM 32.0 °F - 30.2 °F 93% 29.89 in 6.2 mi Calm Calm - N/A Fog Shallow Fog
4:00 AM 31 °F - 29 °F 90% 29.91 in 6 mi East 2.2 mph - - Fog Patches of Fog
4:00 AM 30.2 °F - 28.4 °F 93% 29.89 in 6.2 mi East 2.3 mph - N/A Fog Shallow Fog
4:30 AM 30.2 °F 26.7 °F 28.4 °F 93% 29.89 in 6.2 mi ESE 3.5 mph - N/A Fog Shallow Fog
5:00 AM 30.2 °F - 28.4 °F 93% 29.89 in 5.0 mi Calm Calm - N/A Fog Fog
5:30 AM 30.2 °F 26.7 °F 28.4 °F 93% 29.89 in 3.7 mi NNE 3.5 mph - N/A Fog Fog
6:00 AM 30.2 °F - 28.4 °F 93% 29.89 in - NNE 2.3 mph - N/A   Clear
6:30 AM 30.2 °F - 28.4 °F 93% 29.89 in 3.7 mi Variable 2.3 mph - N/A Fog Fog
7:00 AM 29 °F - 28 °F 95% 29.92 in 0 mi ESE 2.2 mph - - Fog Patches of Fog
7:00 AM 28.4 °F - 28.4 °F 100% 29.89 in 0.4 mi ESE 2.3 mph - N/A Fog Patches of Fog
7:30 AM 32.0 °F - 30.2 °F 93% 29.89 in 3.1 mi Calm Calm - N/A Fog Fog
8:00 AM 33.8 °F - 32.0 °F 93% 29.89 in 5.0 mi Calm Calm - N/A Fog Patches of Fog
8:30 AM 35.6 °F - 33.8 °F 93% 29.92 in 4.3 mi Variable 2.3 mph - N/A   Partly Cloudy
9:00 AM 37.4 °F - 33.8 °F 87% 29.92 in 6.2 mi Variable 2.3 mph - N/A   Partly Cloudy
9:30 AM 41.0 °F - 35.6 °F 81% 29.89 in - Variable 2.3 mph - N/A   Clear
10:00 AM 42 °F - 37 °F 75% 29.93 in 9 mi ESE 4.5 mph - -   Partly Cloudy
10:00 AM 42.8 °F 40.1 °F 37.4 °F 81% 29.92 in - ESE 4.6 mph - N/A   Clear
10:30 AM 44.6 °F 43.1 °F 37.4 °F 76% 29.92 in - ESE 3.5 mph - N/A   Clear
11:00 AM 46.4 °F - 37.4 °F 71% 29.89 in - Variable 2.3 mph - N/A   Clear
11:30 AM 46.4 °F 45.2 °F 37.4 °F 71% 29.89 in - Variable 3.5 mph - N/A   Clear
12:00 PM 48.2 °F - 39.2 °F 71% 29.86 in - NNE 3.5 mph - N/A   Clear
12:30 PM 51.8 °F - 37.4 °F 58% 29.86 in - Variable 3.5 mph - N/A   Clear
1:00 PM 53 °F - 40 °F 49% 29.87 in 12 mi East 2.2 mph - -   Partly Cloudy
1:00 PM 51.8 °F - 39.2 °F 62% 29.86 in - East 3.5 mph - N/A   Clear
1:30 PM 53.6 °F - 39.2 °F 58% 29.83 in - East 5.8 mph - N/A   Clear
2:00 PM 53.6 °F - 39.2 °F 58% 29.83 in - ESE 5.8 mph - N/A   Clear
2:30 PM 53.6 °F - 39.2 °F 58% 29.83 in - East 5.8 mph - N/A   Clear
3:00 PM 51.8 °F - 39.2 °F 62% 29.83 in - East 3.5 mph - N/A   Clear
3:30 PM 51.8 °F - 39.2 °F 62% 29.80 in - ENE 3.5 mph - N/A   Clear
4:00 PM 51.8 °F - 39.2 °F 62% 29.80 in - ESE 5.8 mph - N/A   Clear
4:30 PM 50.0 °F - 39.2 °F 66% 29.80 in - ESE 3.5 mph - N/A   Clear
5:00 PM 50.0 °F - 37.4 °F 62% 29.80 in - East 3.5 mph - N/A   Clear
5:30 PM 50.0 °F - 37.4 °F 62% 29.80 in - ENE 4.6 mph - N/A   Clear
6:00 PM 48.2 °F - 39.2 °F 71% 29.77 in - NE 6.9 mph - N/A   Clear
6:30 PM 48.2 °F - 37.4 °F 66% 29.77 in - NNE 5.8 mph - N/A   Clear
7:00 PM 47 °F - 39 °F 64% 29.79 in 12 mi NE 6.7 mph - -   Scattered Clouds
7:00 PM 46.4 °F 42.9 °F 39.2 °F 76% 29.77 in - NE 6.9 mph - N/A   Clear
7:30 PM 46.4 °F 42.9 °F 39.2 °F 76% 29.77 in - NE 6.9 mph - N/A   Clear
8:00 PM 44.6 °F 42.2 °F 37.4 °F 76% 29.74 in - NE 4.6 mph - N/A   Clear
8:30 PM 44.6 °F 41.4 °F 37.4 °F 76% 29.74 in - NE 5.8 mph - N/A   Clear
9:00 PM 44.6 °F 40.2 °F 37.4 °F 76% 29.74 in - NE 8.1 mph - N/A   Clear
9:30 PM 44.6 °F 39.7 °F 37.4 °F 76% 29.71 in - NE 9.2 mph - N/A   Clear
10:00 PM 45 °F - 39 °F 72% 29.71 in 12 mi NE 8.9 mph - -   Overcast
10:00 PM 44.6 °F 39.7 °F 39.2 °F 81% 29.68 in - NE 9.2 mph - N/A   Clear
10:30 PM 44.6 °F 39.2 °F 39.2 °F 81% 29.68 in - NE 10.4 mph - N/A   Clear
11:00 PM 44.6 °F 40.2 °F 39.2 °F 81% 29.65 in 6.2 mi NE 8.1 mph - N/A Rain Light Rain
11:30 PM 44.6 °F 40.2 °F 41.0 °F 87% 29.65 in 6.2 mi NE 8.1 mph - N/A Rain Light Rain